EW6202 Weather Reports


time (UTC)temp
C
wind
direction
speed
KPH
gust
KPH
rain 1hr
cm
rain 24hr
cm
rain mn
cm
humidity
%
barometer
mb
20260505014549 23 236 1.6 4.8 0.00 0.00 0.00 86 1014.7
20260505013041 23 236 1.6 6.4 0.00 0.00 0.00 86 1014.5
20260505011543 23 261 0.0 4.8 0.00 0.00 0.00 87 1014.7
20260505004540 24 261 0.0 4.8 0.00 0.00 0.00 83 1014.2
20260505003043 25 262 1.6 4.8 0.00 0.00 0.00 81 1014.0
20260505001539 25 262 3.2 6.4 0.00 0.00 0.00 80 1013.7
20260505000045 25 254 0.0 12.9 0.00 0.00 0.00 80 1013.5
20260504234538 26 247 3.2 12.9 0.00 0.00 0.00 79 1013.3
20260504233037 27 253 8.0 14.5 0.00 0.00 0.00 78 1013.1
20260504231543 28 263 3.2 8.0 0.00 0.00 0.00 75 1012.9
20260504230042 30 236 4.8 12.9 0.00 0.00 0.00 66 1012.8
20260504224536 30 158 4.8 11.3 0.00 0.00 0.00 62 1012.4
20260504223034 30 131 6.4 17.7 0.00 0.00 0.00 62 1011.9
20260504221548 31 121 6.4 16.1 0.00 0.00 0.00 62 1011.9
20260504220035 31 112 11.3 22.5 0.00 0.00 0.00 62 1011.3
20260504214534 32 110 9.7 19.3 0.00 0.00 0.00 61 1011.2
20260504213042 32 105 9.7 20.9 0.00 0.00 0.00 61 1011.1
20260504211536 32 88 11.3 20.9 0.00 0.00 0.00 61 1011.1
20260504210030 33 175 9.7 20.9 0.00 0.00 0.00 60 1011.0
20260504204530 33 109 6.4 20.9 0.00 0.00 0.00 59 1010.9
20260504203040 33 100 9.7 22.5 0.00 0.00 0.00 57 1011.1
20260504201527 34 78 9.7 19.3 0.00 0.00 0.00 55 1011.2
20260504200024 33 132 9.7 19.3 0.00 0.00 0.00 55 1011.3
20260504194529 33 126 4.8 17.7 0.00 0.00 0.00 57 1011.3
20260504193021 33 92 11.3 20.9 0.00 0.00 0.00 57 1011.3
20260504191530 33 121 9.7 20.9 0.00 0.00 0.00 58 1011.5
20260504190016 33 152 9.7 19.3 0.00 0.00 0.00 58 1011.7
20260504184518 33 101 9.7 24.1 0.00 0.00 0.00 59 1011.7
20260504183013 33 173 11.3 24.1 0.00 0.00 0.00 60 1011.6
20260504181515 33 127 8.0 22.5 0.00 0.00 0.00 62 1011.9
20260504180015 33 92 12.9 20.9 0.00 0.00 0.00 59 1012.0
20260504174506 33 98 9.7 29.0 0.00 0.00 0.00 61 1012.2
20260504173004 32 136 9.7 20.9 0.00 0.00 0.00 63 1012.3
20260504171502 32 149 12.9 24.1 0.00 0.00 0.00 61 1012.5
20260504081503 23 81 4.8 17.7 0.00 0.00 0.00 90 1013.3
20260504080116 23 152 6.4 14.5 0.00 0.00 0.00 90 1013.5
20260504044532 25 142 4.8 19.3 0.00 0.00 0.00 79 1014.7
20260504043030 25 123 4.8 12.9 0.00 0.00 0.00 79 1014.9
20260504041528 25 169 4.8 11.3 0.00 0.00 0.00 78 1015.1
20260504040039 25 125 3.2 9.7 0.00 0.00 0.00 77 1015.1
20260504034525 25 86 4.8 14.5 0.00 0.00 0.00 77 1015.4
20260504033025 25 113 1.6 4.8 0.00 0.00 0.00 80 1015.3
20260504031524 25 173 0.0 0.0 0.00 0.00 0.00 79 1015.4
20260504030024 25 173 0.0 0.0 0.00 0.00 0.00 78 1015.3
20260504024523 26 173 0.0 4.8 0.00 0.00 0.00 74 1015.0
20260504023022 26 132 1.6 6.4 0.00 0.00 0.00 75 1014.9
20260504021522 26 142 1.6 3.2 0.00 0.00 0.00 75 1014.6
20260504020021 26 142 0.0 0.0 0.00 0.00 0.00 73 1014.5